Weather History for Boone, NC

Change the Weather History Date:

Tuesday, March 11, 2014

  Actual Average (KGEV) Record (KGEV)
Temperature  
Mean Temperature 56 °F -  
Max Temperature 68 °F 55 °F 100 °F (2004)
Min Temperature 43 °F 32 °F 12 °F (1969)
Degree Days  
Heating Degree Days 9    
Growing Degree Days 6 (Base 50)    
Moisture  
Dew Point 30 °F    
Average Humidity 42    
Maximum Humidity 64    
Minimum Humidity 14    
Precipitation  
Precipitation 0.00 in - - ()
Sea Level Pressure  
Sea Level Pressure 29.82 in    
Wind  
Wind Speed 9 mph (WNW)    
Max Wind Speed 17 mph    
Max Gust Speed 29 mph    
Visibility 10 miles    
Events      
Averages and records for this station are not official NWS values.
T = Trace of Precipitation, MM = Missing Value Source: NWS Daily Summary

Daily Weather History Graph

Daily Weather History Graph

Search for Another Location

Airport:

Trip Planner

Search our weather history database for the weather conditions in past years. The results will help you decide how hot, cold, wet, or windy it might be!

Date:

Astronomy

Mar. 11, 2014 Rise Set
Actual Time 7:43 AM EDT 7:30 PM EDT
Civil Twilight 7:17 AM EDT 7:56 PM EDT
Nautical Twilight 6:47 AM EDT 8:25 PM EDT
Astronomical Twilight 6:17 AM EDT 8:55 PM EDT
Moon 3:11 PM EDT (3/11) 4:29 AM EDT (3/11)
Length of Visible Light 12h 38m
Length of Day
11h 47m
Waxing Gibbous, 78% of the Moon is Illuminated
Mar 11
Waxing Gibbous
Mar 16
Full
Mar 23
Last Quarter
Mar 30
New
Apr 7
First Quarter

Hourly Weather History & Observations

Time (EDT) Temp. Dew Point Humidity Pressure Visibility Wind Dir Wind Speed Gust Speed Precip Events Conditions
12:15 AM 50.9 °F 33.8 °F 52% 29.87 in 10.0 mi WNW 11.5 mph 18.4 mph N/A   Clear
12:35 AM 50.9 °F 33.8 °F 52% 29.88 in 10.0 mi West 9.2 mph - N/A   Clear
12:55 AM 51.1 °F 34.0 °F 52% 29.87 in 10.0 mi WNW 9.2 mph - N/A   Clear
1:15 AM 51.4 °F 34.0 °F 51% 29.87 in 10.0 mi West 8.1 mph - N/A   Clear
1:35 AM 51.1 °F 33.8 °F 52% 29.87 in 10.0 mi WNW 5.8 mph - N/A   Clear
1:55 AM 51.6 °F 33.3 °F 50% 29.88 in 10.0 mi WNW 5.8 mph - N/A   Clear
2:15 AM 50.9 °F 33.3 °F 51% 29.87 in 10.0 mi WNW 8.1 mph - N/A   Clear
2:35 AM 51.1 °F 33.3 °F 51% 29.86 in 10.0 mi NW 10.4 mph 18.4 mph N/A   Clear
2:55 AM 51.1 °F 33.3 °F 51% 29.87 in 10.0 mi West 10.4 mph 16.1 mph N/A   Clear
3:15 AM 50.9 °F 33.3 °F 51% 29.87 in 10.0 mi West 10.4 mph 16.1 mph N/A   Clear
3:35 AM 50.9 °F 33.1 °F 51% 29.87 in 10.0 mi West 8.1 mph 17.3 mph N/A   Clear
3:55 AM 50.5 °F 32.9 °F 51% 29.87 in 10.0 mi West 11.5 mph 18.4 mph N/A   Clear
4:15 AM 50.4 °F 32.4 °F 50% 29.87 in 10.0 mi West 9.2 mph - N/A   Clear
4:30 AM 50.0 °F 32.0 °F 50% 29.86 in 10.0 mi West 11.5 mph 21.9 mph N/A   Clear
4:55 AM 49.5 °F 32.0 °F 51% 29.87 in 10.0 mi West 9.2 mph 16.1 mph N/A   Clear
5:15 AM 48.9 °F 32.0 °F 52% 29.86 in 10.0 mi West 6.9 mph - N/A   Clear
5:35 AM 49.1 °F 32.0 °F 52% 29.86 in 10.0 mi West 5.8 mph - N/A   Clear
5:55 AM 48.4 °F 32.0 °F 53% 29.87 in 10.0 mi West 6.9 mph - N/A   Clear
6:15 AM 48.2 °F 32.0 °F 54% 29.87 in 10.0 mi WNW 9.2 mph - N/A   Clear
6:35 AM 48.2 °F 32.4 °F 54% 29.87 in 10.0 mi WNW 10.4 mph 19.6 mph N/A   Clear
6:55 AM 48.0 °F 32.9 °F 56% 29.86 in 10.0 mi WNW 6.9 mph 19.6 mph N/A   Clear
7:15 AM 47.5 °F 33.1 °F 57% 29.87 in 10.0 mi West 9.2 mph - N/A   Clear
7:35 AM 47.5 °F 33.8 °F 59% 29.87 in 10.0 mi West 12.7 mph 19.6 mph N/A   Clear
7:55 AM 47.3 °F 34.2 °F 60% 29.87 in 10.0 mi West 8.1 mph 18.4 mph N/A   Clear
8:15 AM 47.3 °F 34.7 °F 62% 29.87 in 10.0 mi West 8.1 mph 19.6 mph N/A   Clear
8:35 AM 47.5 °F 34.9 °F 62% 29.86 in 10.0 mi WNW 16.1 mph 26.5 mph N/A   Clear
8:55 AM 48.2 °F 35.1 °F 60% 29.85 in 10.0 mi WNW 17.3 mph 26.5 mph N/A   Clear
9:15 AM 48.9 °F 35.2 °F 59% 29.85 in 10.0 mi West 17.3 mph 23.0 mph N/A   Clear
9:35 AM 49.6 °F 35.6 °F 59% 29.85 in 10.0 mi WNW 15.0 mph 23.0 mph N/A   Clear
9:55 AM 50.9 °F 35.6 °F 56% 29.85 in 10.0 mi WNW 12.7 mph 19.6 mph N/A   Clear
10:15 AM 51.4 °F 35.6 °F 55% 29.85 in 10.0 mi WNW 11.5 mph 28.8 mph N/A   Clear
10:35 AM 52.0 °F 35.1 °F 53% 29.86 in 10.0 mi WNW 11.5 mph 24.2 mph N/A   Clear
10:55 AM 52.7 °F 35.1 °F 51% 29.86 in 10.0 mi WNW 15.0 mph 21.9 mph N/A   Clear
11:15 AM 53.1 °F 34.9 °F 50% 29.86 in 10.0 mi NW 12.7 mph 18.4 mph N/A   Clear
11:35 AM 54.1 °F 34.9 °F 48% 29.86 in 10.0 mi WNW 10.4 mph 21.9 mph N/A   Clear
11:55 AM 55.4 °F 34.7 °F 46% 29.85 in 10.0 mi West 12.7 mph 18.4 mph N/A   Clear
12:15 PM 56.5 °F 34.9 °F 44% 29.85 in 10.0 mi WNW 11.5 mph - N/A   Clear
12:35 PM 58.3 °F 34.9 °F 41% 29.85 in 10.0 mi WNW 10.4 mph 17.3 mph N/A   Clear
12:55 PM 59.9 °F 34.3 °F 38% 29.83 in 10.0 mi WNW 10.4 mph - N/A   Clear
1:15 PM 60.6 °F 34.7 °F 38% 29.82 in 10.0 mi WNW 6.9 mph - N/A   Clear
1:35 PM 61.9 °F 32.4 °F 33% 29.82 in 10.0 mi NW 9.2 mph 16.1 mph N/A   Clear
1:55 PM 63.3 °F 30.6 °F 29% 29.80 in 10.0 mi WNW 10.4 mph - N/A   Clear
2:15 PM 64.6 °F 28.0 °F 25% 29.80 in 10.0 mi NW 12.7 mph 16.1 mph N/A   Clear
2:35 PM 65.5 °F 25.5 °F 22% 29.79 in 10.0 mi WNW 9.2 mph 17.3 mph N/A   Clear
2:55 PM 66.0 °F 22.5 °F 19% 29.78 in 10.0 mi NW 9.2 mph 16.1 mph N/A   Clear
3:15 PM 66.9 °F 21.7 °F 18% 29.77 in 10.0 mi West 11.5 mph - N/A   Clear
3:35 PM 66.6 °F 23.2 °F 19% 29.77 in 10.0 mi WNW 12.7 mph - N/A   Clear
3:55 PM 66.9 °F 25.2 °F 21% 29.77 in 10.0 mi NW 15.0 mph - N/A   Clear
4:15 PM 67.8 °F 21.6 °F 17% 29.77 in 10.0 mi NW 10.4 mph 18.4 mph N/A   Clear
4:35 PM 68.0 °F 22.8 °F 18% 29.77 in 10.0 mi WNW 8.1 mph 17.3 mph N/A   Clear
4:55 PM 68.7 °F 20.1 °F 16% 29.76 in 10.0 mi WNW 10.4 mph 16.1 mph N/A   Clear
5:15 PM 68.9 °F 19.0 °F 15% 29.76 in 10.0 mi West 11.5 mph 23.0 mph N/A   Clear
5:35 PM 68.0 °F 19.0 °F 15% 29.76 in 10.0 mi NW 9.2 mph - N/A   Clear
5:55 PM 68.2 °F 17.1 °F 14% 29.76 in 10.0 mi NW 9.2 mph - N/A   Clear
6:15 PM 67.6 °F 18.1 °F 15% 29.76 in 10.0 mi WNW 8.1 mph - N/A   Clear
6:35 PM 66.6 °F 18.7 °F 16% 29.77 in 10.0 mi WNW 6.9 mph - N/A   Clear
6:55 PM 65.5 °F 21.0 °F 18% 29.77 in 10.0 mi NW 8.1 mph - N/A   Clear
7:15 PM 64.2 °F 22.1 °F 20% 29.78 in 10.0 mi West 4.6 mph - N/A   Clear
7:35 PM 62.4 °F 23.5 °F 23% 29.78 in 10.0 mi WSW 3.5 mph - N/A   Clear
7:55 PM 61.5 °F 24.6 °F 24% 29.79 in 10.0 mi WSW 4.6 mph - N/A   Clear
8:15 PM 60.3 °F 25.3 °F 26% 29.78 in 10.0 mi West 5.8 mph - N/A   Clear
8:35 PM 57.4 °F 26.8 °F 31% 29.78 in 10.0 mi WNW 3.5 mph - N/A   Clear
8:55 PM 54.5 °F 27.7 °F 36% 29.78 in 10.0 mi West 3.5 mph - N/A   Clear
9:15 PM 53.1 °F 28.4 °F 39% 29.79 in 10.0 mi Calm Calm - N/A   Clear
9:35 PM 51.8 °F 28.9 °F 41% 29.79 in 10.0 mi WNW 3.5 mph - N/A   Clear
9:55 PM 51.3 °F 29.3 °F 43% 29.79 in 10.0 mi West 3.5 mph - N/A   Clear
10:15 PM 50.4 °F 30.2 °F 46% 29.79 in 10.0 mi Calm Calm - N/A   Clear
10:35 PM 47.5 °F 31.5 °F 54% 29.78 in 10.0 mi Calm Calm - N/A   Clear
10:55 PM 46.8 °F 32.0 °F 57% 29.78 in 10.0 mi Calm Calm - N/A   Clear
11:15 PM 44.8 °F 32.0 °F 61% 29.78 in 10.0 mi Calm Calm - N/A   Clear
11:35 PM 45.0 °F 32.0 °F 60% 29.78 in 10.0 mi Calm Calm - N/A   Clear
11:55 PM 43.9 °F 32.4 °F 64% 29.77 in 10.0 mi Calm Calm - N/A   Clear